Weather History for Bentonville, AR

Change the Weather History Date:

Friday, January 24, 2014

  Actual Average Record
Temperature  
Mean Temperature 19 °F -  
Max Temperature 35 °F 48 °F 76 °F (1950)
Min Temperature 3 °F 25 °F -2 °F (1963)
Degree Days  
Heating Degree Days 46    
Moisture  
Dew Point 0 °F    
Average Humidity 47    
Maximum Humidity 78    
Minimum Humidity 20    
Precipitation  
Precipitation 0.00 in - - ()
Sea Level Pressure  
Sea Level Pressure 30.36 in    
Wind  
Wind Speed 7 mph (SW)    
Max Wind Speed 21 mph    
Max Gust Speed 30 mph    
Visibility 10 miles    
Events      
Averages and records for this station are not official NWS values.
T = Trace of Precipitation, MM = Missing Value Source: NWS Daily Summary

Daily Weather History Graph

Daily Weather History Graph

Search for Another Location

Airport:

Trip Planner

Search our weather history database for the weather conditions in past years. The results will help you decide how hot, cold, wet, or windy it might be!

Date:

Astronomy

Jan. 24, 2014 Rise Set
Actual Time 7:23 AM CST 5:34 PM CST
Civil Twilight 6:56 AM CST 6:02 PM CST
Nautical Twilight 6:24 AM CST 6:33 PM CST
Astronomical Twilight 5:54 AM CST 7:04 PM CST
Moon 12:54 AM CST (1/24) 11:52 AM CST (1/24)
Length of Visible Light 11h 06m
Length of Day
10h 11m
Last Quarter, 44% of the Moon is Illuminated
Jan 24
Last Quarter
Jan 30
New
Feb 6
First Quarter
Feb 14
Full
Feb 22
Last Quarter

Hourly Weather History & Observations

Time (CST) Temp. Windchill Dew Point Humidity Pressure Visibility Wind Dir Wind Speed Gust Speed Precip Events Conditions
12:15 AM 6.8 °F - -0.4 °F 72% 30.68 in 10.0 mi Calm Calm - N/A   Clear
12:35 AM 6.8 °F - -0.4 °F 72% 30.68 in 10.0 mi Calm Calm - N/A   Clear
12:55 AM 6.8 °F -0.1 °F -0.4 °F 72% 30.68 in 10.0 mi SSW 3.5 mph - N/A   Clear
1:15 AM 6.8 °F -0.1 °F -2.2 °F 67% 30.67 in 10.0 mi SSW 3.5 mph - N/A   Clear
1:35 AM 5.0 °F - -2.2 °F 72% 30.66 in 10.0 mi Calm Calm - N/A   Clear
1:55 AM 3.2 °F - -2.2 °F 78% 30.65 in 10.0 mi Calm Calm - N/A   Clear
2:15 AM 5.0 °F - -0.4 °F 78% 30.64 in 10.0 mi Calm Calm - N/A   Clear
2:35 AM 5.0 °F - -2.2 °F 72% 30.64 in 10.0 mi Calm Calm - N/A   Clear
2:55 AM 5.0 °F -4.1 °F -2.2 °F 72% 30.64 in 10.0 mi SSW 4.6 mph - N/A   Clear
3:15 AM 5.0 °F -4.1 °F -2.2 °F 72% 30.63 in 10.0 mi SSW 4.6 mph - N/A   Clear
3:35 AM 3.2 °F -4.2 °F -4.0 °F 72% 30.62 in 10.0 mi South 3.5 mph - N/A   Clear
3:55 AM 3.2 °F -6.2 °F -4.0 °F 72% 30.61 in 10.0 mi South 4.6 mph - N/A   Clear
4:15 AM 5.0 °F -5.6 °F -2.2 °F 72% 30.60 in 10.0 mi SSW 5.8 mph - N/A   Clear
4:35 AM 3.2 °F -4.2 °F -2.2 °F 78% 30.60 in 10.0 mi SSW 3.5 mph - N/A   Clear
4:55 AM 3.2 °F -4.2 °F -2.2 °F 78% 30.59 in 10.0 mi SSW 3.5 mph - N/A   Clear
5:15 AM 3.2 °F -4.2 °F -2.2 °F 78% 30.58 in 10.0 mi SSW 3.5 mph - N/A   Clear
5:35 AM 3.2 °F -4.2 °F -2.2 °F 78% 30.56 in 10.0 mi SSW 3.5 mph - N/A   Clear
5:55 AM 3.2 °F -6.2 °F -2.2 °F 78% 30.55 in 10.0 mi SSW 4.6 mph - N/A   Clear
6:15 AM 3.2 °F -6.2 °F -4.0 °F 72% 30.55 in 10.0 mi SSW 4.6 mph - N/A   Clear
6:35 AM 3.2 °F -7.8 °F -2.2 °F 78% 30.55 in 10.0 mi SSW 5.8 mph - N/A   Clear
6:55 AM 3.2 °F -6.2 °F -2.2 °F 78% 30.55 in 10.0 mi SSW 4.6 mph - N/A   Clear
7:15 AM 3.2 °F -4.2 °F -4.0 °F 72% 30.55 in 10.0 mi SW 3.5 mph - N/A   Clear
7:35 AM 3.2 °F -6.2 °F -2.2 °F 78% 30.54 in 10.0 mi South 4.6 mph - N/A   Clear
7:55 AM 5.0 °F -5.6 °F -0.4 °F 78% 30.54 in 10.0 mi SSW 5.8 mph - N/A   Clear
8:15 AM 6.8 °F -3.5 °F -2.2 °F 67% 30.53 in 10.0 mi SSW 5.8 mph - N/A   Clear
8:35 AM 8.6 °F -2.6 °F -0.4 °F 67% 30.53 in 10.0 mi SW 6.9 mph - N/A   Clear
8:55 AM 8.6 °F -5.5 °F -0.4 °F 67% 30.53 in 10.0 mi SW 10.4 mph - N/A   Clear
9:15 AM 10.4 °F -4.1 °F -0.4 °F 62% 30.52 in 10.0 mi SSW 11.5 mph - N/A   Clear
9:35 AM 12.2 °F -2.5 °F 3.2 °F 67% 30.52 in 10.0 mi SW 12.7 mph - N/A   Clear
9:55 AM 15.8 °F 2.1 °F 1.4 °F 53% 30.51 in 10.0 mi SW 12.7 mph - N/A   Clear
10:15 AM 17.6 °F 3.7 °F 1.4 °F 49% 30.51 in 10.0 mi SW 13.8 mph - N/A   Clear
10:35 AM 19.4 °F 7.2 °F 1.4 °F 46% 30.49 in 10.0 mi SSW 11.5 mph - N/A   Clear
10:55 AM 21.2 °F 8.9 °F -0.4 °F 39% 30.46 in 10.0 mi SSW 12.7 mph 20.7 mph N/A   Clear
11:15 AM 23.0 °F 9.2 °F -0.4 °F 36% 30.46 in 10.0 mi SW 17.3 mph - N/A   Clear
11:35 AM 24.8 °F 12.4 °F -2.2 °F 31% 30.43 in 10.0 mi SSW 15.0 mph - N/A   Clear
11:55 AM 24.8 °F 11.1 °F -0.4 °F 34% 30.41 in 10.0 mi SW 18.4 mph 25.3 mph N/A   Clear
12:15 PM 26.6 °F 14.7 °F -2.2 °F 29% 30.39 in 10.0 mi SW 15.0 mph 20.7 mph N/A   Clear
12:35 PM 28.4 °F 15.4 °F -2.2 °F 27% 30.37 in 10.0 mi SW 19.6 mph 25.3 mph N/A   Clear
12:55 PM 28.4 °F 16.6 °F -2.2 °F 27% 30.35 in 10.0 mi WSW 16.1 mph 23.0 mph N/A   Clear
1:15 PM 30.2 °F 18.9 °F -2.2 °F 25% 30.32 in 10.0 mi SW 16.1 mph 24.2 mph N/A   Clear
1:35 PM 32.0 °F 19.8 °F -2.2 °F 23% 30.31 in 10.0 mi SSW 20.7 mph 24.2 mph N/A   Clear
1:55 PM 33.8 °F 23.5 °F -2.2 °F 22% 30.28 in 10.0 mi SW 16.1 mph 19.6 mph N/A   Clear
2:15 PM 33.8 °F 23.2 °F -4.0 °F 20% 30.25 in 10.0 mi SW 17.3 mph 26.5 mph N/A   Clear
2:35 PM 35.6 °F 24.5 °F -2.2 °F 20% 30.24 in 10.0 mi SW 20.7 mph 26.5 mph N/A   Clear
2:55 PM 35.6 °F 25.5 °F -2.2 °F 20% 30.22 in 10.0 mi SSW 17.3 mph 21.9 mph N/A   Clear
3:15 PM 33.8 °F 22.5 °F -2.2 °F 22% 30.20 in 10.0 mi SSW 19.6 mph 26.5 mph N/A   Clear
3:35 PM 33.8 °F 22.2 °F -0.4 °F 23% 30.18 in 10.0 mi SSW 20.7 mph 27.6 mph N/A   Clear
3:55 PM 33.8 °F 22.8 °F -0.4 °F 23% 30.16 in 10.0 mi SSW 18.4 mph 29.9 mph N/A   Clear
4:15 PM 35.6 °F 26.2 °F 1.4 °F 24% 30.15 in 10.0 mi SSW 15.0 mph 23.0 mph N/A   Clear
4:35 PM 35.6 °F 25.5 °F 1.4 °F 24% 30.14 in 10.0 mi SW 17.3 mph 25.3 mph N/A   Clear
4:55 PM 33.8 °F 25.8 °F 1.4 °F 25% 30.13 in 10.0 mi SSW 10.4 mph 16.1 mph N/A   Clear
5:15 PM 33.8 °F 22.8 °F 1.4 °F 25% 30.12 in 10.0 mi SSW 18.4 mph 23.0 mph N/A   Clear
5:35 PM 33.8 °F 24.3 °F 1.4 °F 25% 30.13 in 10.0 mi SW 13.8 mph 21.9 mph N/A   Clear
5:55 PM 32.0 °F 23.6 °F -0.4 °F 25% 30.13 in 10.0 mi SW 10.4 mph - N/A   Clear
6:15 PM 32.0 °F 22.5 °F 1.4 °F 27% 30.13 in 10.0 mi SW 12.7 mph 18.4 mph N/A   Clear
6:35 PM 32.0 °F 23.6 °F 1.4 °F 27% 30.12 in 10.0 mi SW 10.4 mph - N/A   Clear
6:55 PM 30.2 °F 20.2 °F 1.4 °F 29% 30.12 in 10.0 mi SW 12.7 mph - N/A   Clear
7:15 PM 32.0 °F 23.0 °F 1.4 °F 27% 30.13 in 10.0 mi SW 11.5 mph - N/A   Partly Cloudy
7:35 PM 32.0 °F 22.5 °F 1.4 °F 27% 30.12 in 10.0 mi SW 12.7 mph - N/A   Clear
7:55 PM 32.0 °F 22.1 °F 3.2 °F 30% 30.11 in 10.0 mi SW 13.8 mph - N/A   Clear
8:15 PM 32.0 °F 22.1 °F 3.2 °F 30% 30.09 in 10.0 mi SW 13.8 mph 23.0 mph N/A   Clear
8:35 PM 32.0 °F 22.1 °F 3.2 °F 30% 30.08 in 10.0 mi SW 13.8 mph 21.9 mph N/A   Clear
8:55 PM 30.2 °F 18.9 °F 3.2 °F 32% 30.07 in 10.0 mi SW 16.1 mph 21.9 mph N/A   Clear
9:15 PM 30.2 °F 19.8 °F 3.2 °F 32% 30.07 in 10.0 mi SW 13.8 mph 19.6 mph N/A   Clear
9:35 PM 30.2 °F 19.8 °F 3.2 °F 32% 30.06 in 10.0 mi SW 13.8 mph 19.6 mph N/A   Clear
9:55 PM 30.2 °F 19.3 °F 3.2 °F 32% 30.05 in 10.0 mi SW 15.0 mph 19.6 mph N/A   Partly Cloudy
10:15 PM 30.2 °F 21.3 °F 3.2 °F 32% 30.04 in 10.0 mi SW 10.4 mph 20.7 mph N/A   Clear
10:35 PM 30.2 °F 20.2 °F 3.2 °F 32% 30.03 in 10.0 mi SW 12.7 mph 21.9 mph N/A   Clear
10:55 PM 32.0 °F 21.2 °F 3.2 °F 30% 30.02 in 10.0 mi SW 16.1 mph 25.3 mph N/A   Clear
11:15 PM 32.0 °F 21.2 °F 3.2 °F 30% 30.02 in 10.0 mi SW 16.1 mph 23.0 mph N/A   Clear
11:35 PM 32.0 °F 21.2 °F 3.2 °F 30% 30.00 in 10.0 mi SW 16.1 mph 23.0 mph N/A   Clear
11:55 PM 32.0 °F 21.6 °F 3.2 °F 30% 29.99 in 10.0 mi SW 15.0 mph 21.9 mph N/A   Clear